Theta_e
321 324 327 326 326 326 326 325 324 323 323 321 320 319 319 319 318 317 317 316 316 315 315 315 316 315 314 311 309 307 306 304 302 301 302 302 301 301 300 300 299 299 299 298 298 298 297 297 297 296 296 295 295 294 293 291 290 290 290 289 288 288 288 288 287 286 286 286 286
318 322 325 325 325 325 325 324 323 323 323 322 321 320 319 319 319 317 317 316 316 315 315 315 315 313 311 308 306 305 303 300 300 301 301 301 301 300 299 298 298 298 298 298 298 297 297 296 296 295 295 294 294 293 291 290 290 290 289 288 288 288 288 288 287 286 286 286 285
317 320 323 324 324 324 324 324 323 322 322 321 321 320 319 319 318 318 316 314 313 312 312 312 311 308 306 303 303 302 300 299 299 300 300 301 300 299 298 298 298 298 298 297 297 297 296 296 296 295 294 294 293 292 292 291 292 291 289 288 288 288 288 287 286 286 286 286 285
315 319 321 322 323 323 323 323 322 322 322 321 320 319 319 318 317 316 314 312 310 309 308 308 307 305 303 301 300 300 299 299 299 299 299 300 299 299 298 298 298 298 297 297 297 296 296 296 296 295 294 293 292 292 292 292 292 292 290 289 288 288 287 287 286 286 286 286 285
315 319 321 322 322 322 323 323 322 322 322 322 320 319 318 318 317 315 314 313 312 310 308 306 306 304 302 300 299 299 299 299 300 299 298 298 298 298 298 298 298 298 297 297 297 296 296 296 295 295 294 293 293 292 292 292 291 291 291 290 289 288 287 287 286 286 286 285 285
314 318 321 322 322 322 323 324 322 322 322 321 320 319 319 319 319 318 316 313 311 309 307 306 305 303 301 299 299 298 298 299 299 298 297 297 297 297 298 298 298 297 297 297 297 296 296 295 295 294 293 293 293 292 292 292 291 291 290 289 287 287 287 286 286 286 286 286 285
312 316 319 321 322 322 323 323 322 321 321 320 318 318 319 319 319 317 316 313 311 309 307 306 304 301 300 298 298 298 298 298 298 297 297 297 297 297 297 297 297 297 297 296 296 296 295 295 294 294 293 293 292 292 291 291 291 290 289 287 287 287 287 286 286 286 286 285 285
311 315 318 320 321 321 322 322 321 320 320 320 319 318 319 319 318 317 315 313 310 308 307 305 302 300 299 298 297 297 297 297 297 297 297 297 297 296 296 296 296 296 296 296 295 295 294 294 294 293 293 292 291 291 291 291 290 289 288 287 286 286 286 286 286 286 286 286 286
309 313 316 318 319 320 320 320 319 318 318 318 318 318 318 319 318 317 315 312 310 308 306 304 301 299 299 298 297 297 297 297 297 296 297 297 297 296 296 296 295 295 295 295 295 294 294 294 293 293 292 292 291 290 290 290 289 288 287 287 286 285 285 285 285 286 286 286 285
308 311 314 316 318 318 318 316 315 315 315 316 315 316 318 318 318 316 314 312 310 308 306 303 300 299 298 298 297 297 297 297 296 296 296 297 297 296 296 295 295 295 294 294 294 294 294 293 292 292 291 291 290 289 289 289 288 288 287 287 286 285 285 285 285 286 286 286 285
307 310 312 314 314 314 314 312 311 312 313 313 313 315 318 318 317 315 313 312 310 307 305 302 300 298 298 298 297 297 297 297 297 297 297 297 297 297 296 295 295 294 294 294 294 293 293 293 292 291 290 290 289 289 288 288 288 287 287 287 286 285 285 284 284 285 285 285 285
307 308 310 311 311 311 311 310 309 309 310 311 314 316 317 316 315 314 312 310 308 306 304 302 300 299 298 298 298 298 297 297 297 297 297 297 297 296 296 295 295 294 294 293 294 293 293 292 291 290 289 289 289 288 288 288 288 287 286 286 286 285 285 284 284 284 284 284 284
306 306 307 307 307 308 309 309 308 308 310 313 315 316 316 314 313 312 311 309 307 305 303 302 300 299 299 298 298 298 297 297 297 297 297 297 296 296 295 295 294 294 293 293 293 293 292 291 290 289 289 289 289 289 289 288 288 287 287 286 286 285 285 284 283 283 283 284 284
304 305 305 305 305 306 307 307 307 308 311 313 314 314 313 312 311 310 309 308 306 305 303 301 301 300 299 298 298 297 297 297 297 297 297 296 296 295 295 294 293 293 293 293 293 292 292 291 290 289 289 289 289 289 289 289 288 288 287 286 286 285 284 284 283 284 284 285 285
303 303 303 303 304 305 305 306 307 309 310 311 311 311 311 309 309 309 307 306 305 303 302 301 300 299 298 298 298 297 297 297 297 297 296 295 295 294 294 293 293 292 292 292 291 291 291 290 290 290 289 289 289 288 288 289 288 288 287 286 286 285 284 284 284 284 285 285 285
302 302 302 303 303 304 305 306 307 308 309 309 308 308 308 307 307 306 305 304 303 301 300 299 299 298 298 298 298 297 297 297 297 296 295 294 293 293 293 292 292 292 291 291 291 290 290 291 291 290 290 289 288 288 288 288 287 287 286 286 286 285 285 284 284 284 285 286 286
301 301 302 303 303 304 305 306 307 307 307 306 306 306 305 305 305 304 304 302 301 300 299 298 298 298 297 298 297 297 297 296 296 295 294 293 292 292 292 292 292 291 291 291 291 291 291 291 291 290 289 289 288 287 287 287 286 286 286 286 286 285 285 285 285 284 284 285 286
300 300 301 302 303 304 305 306 306 305 305 304 304 304 304 303 303 302 301 301 300 299 298 297 297 297 297 297 297 297 296 295 294 294 293 292 292 292 291 291 291 291 291 291 291 290 290 290 289 289 288 288 287 287 287 286 286 286 285 285 285 285 285 285 284 284 284 284 285
299 300 300 302 303 304 305 304 304 303 303 303 303 302 302 302 301 300 300 299 299 298 298 297 297 297 297 296 296 296 295 294 293 293 292 292 292 291 291 291 291 291 291 291 290 290 289 289 288 288 287 287 287 287 287 287 286 286 285 285 285 284 284 283 283 283 283 283 283
298 299 300 302 303 303 304 303 303 302 302 302 302 301 301 300 300 299 299 298 298 298 297 297 296 296 296 296 295 295 294 294 293 292 292 292 291 291 291 291 291 291 290 290 289 289 288 288 288 288 288 287 287 287 287 286 286 286 285 285 284 284 283 282 282 282 282 282 282
298 299 300 302 303 303 303 302 302 302 302 302 301 300 300 300 299 298 298 298 298 297 297 296 295 295 295 295 294 293 293 293 292 291 291 291 291 291 290 290 290 290 289 289 288 288 288 288 288 288 288 288 287 287 287 286 285 285 285 284 284 283 283 283 282 282 282 282 282
299 300 302 303 303 303 302 302 302 302 301 301 300 300 299 298 298 298 297 297 297 296 296 295 295 294 294 293 293 292 292 292 291 291 291 291 290 290 290 290 289 289 288 288 288 288 288 289 289 288 288 287 287 286 286 286 285 285 284 284 284 283 283 283 283 283 282 282 282
301 302 302 303 303 303 302 302 302 301 301 300 299 298 298 297 297 296 296 296 295 295 294 294 294 293 293 292 292 291 291 291 290 290 290 290 290 290 290 289 289 289 289 289 289 289 288 288 288 288 287 287 286 286 286 286 285 285 284 284 284 284 283 283 283 283 282 282 282
302 302 302 302 302 302 301 301 300 300 299 298 297 297 296 296 295 295 295 294 294 293 293 292 292 292 291 291 291 291 290 290 289 289 289 289 290 290 289 289 289 289 289 289 289 289 289 288 288 287 287 287 287 286 286 286 285 285 285 285 284 284 284 283 283 283 282 282 282
300 300 301 300 300 300 299 299 298 297 297 296 296 295 295 294 294 293 293 292 292 292 291 291 291 291 291 290 290 290 290 289 289 289 289 289 289 290 289 289 289 290 290 291 292 292 291 290 289 288 287 287 286 286 286 286 285 285 285 284 284 284 284 283 283 283 282 282 281
299 298 298 298 297 297 296 296 296 295 295 295 294 294 293 293 293 292 291 291 291 290 290 290 290 290 290 290 290 290 290 289 289 289 289 289 289 289 290 290 290 291 291 292 293 293 293 292 291 289 288 287 286 286 285 285 285 285 284 284 284 284 283 283 283 282 282 281 281
296 296 296 295 295 295 294 294 294 294 293 293 293 292 292 292 291 291 290 290 290 290 290 290 290 290 290 290 290 290 289 290 290 290 289 289 289 289 290 290 291 291 292 294 294 294 293 293 292 290 289 287 286 285 285 284 284 284 284 284 283 283 283 282 282 282 281 281 280
294 294 294 294 293 293 293 293 292 292 292 291 291 291 291 291 290 290 289 289 289 289 290 290 290 290 290 290 289 289 289 290 290 290 290 290 290 290 290 290 291 292 294 295 295 294 294 293 293 291 290 287 286 285 285 284 284 283 283 283 282 282 282 281 281 281 280 280 280
293 293 293 292 292 292 291 291 291 291 290 290 290 290 290 290 289 289 289 289 289 289 289 289 290 290 289 289 289 289 289 289 290 290 290 290 290 290 291 291 292 293 295 295 295 294 294 293 293 292 290 288 286 285 284 284 283 283 283 282 282 281 281 281 280 280 280 280 280
292 292 291 291 290 290 290 290 290 290 290 290 289 289 289 289 289 289 288 288 288 288 289 289 289 289 288 288 289 289 289 289 290 290 290 290 291 291 292 293 293 294 295 296 295 294 294 293 292 291 290 288 286 285 284 284 283 283 282 282 281 281 280 280 280 280 279 279 279
291 291 290 290 290 289 289 289 289 289 289 289 289 289 288 288 288 288 288 288 288 288 289 288 288 288 288 288 288 289 289 289 290 291 291 291 292 292 292 293 293 294 295 296 295 294 294 293 292 291 289 288 286 284 283 283 283 282 282 281 280 280 280 280 279 279 279 278 278
290 290 289 289 289 289 289 289 289 289 289 288 288 288 288 287 288 288 288 288 288 288 288 288 288 287 287 288 288 288 289 289 290 290 291 291 291 291 292 292 293 294 295 295 295 294 293 292 291 290 289 288 286 284 283 282 282 281 281 280 280 279 279 279 279 278 278 277 277
290 289 289 289 288 288 288 288 288 288 288 288 288 288 287 287 287 288 288 288 288 287 287 287 287 287 287 287 288 288 289 289 290 291 291 291 291 291 291 292 292 294 295 295 294 293 292 291 290 289 289 288 285 283 282 282 281 281 280 279 279 278 278 277 277 277 276 276 275
289 289 289 288 288 288 288 288 288 288 288 288 288 287 287 287 287 287 287 287 287 287 287 287 287 287 287 288 288 288 289 290 290 290 290 290 290 290 290 291 292 293 294 294 293 293 292 291 290 289 288 287 284 282 281 281 280 280 279 278 278 277 277 276 276 275 275 274 274
288 288 288 288 288 288 288 287 287 287 287 287 287 287 287 287 287 287 287 287 287 287 287 287 287 287 288 288 288 288 289 289 289 289 289 289 289 289 289 290 291 292 293 293 293 292 291 291 290 289 287 286 283 281 281 280 279 279 278 278 277 276 276 275 274 274 273 273 273
288 288 287 287 287 287 287 287 287 287 287 287 287 287 287 287 287 287 287 288 287 287 287 287 287 287 287 287 287 288 288 288 288 288 288 288 288 288 288 288 290 291 293 293 292 292 291 290 289 288 286 284 281 280 280 279 278 278 277 277 276 275 275 274 274 273 273 272 272
288 288 287 287 287 287 287 287 287 287 286 286 286 286 286 286 287 287 287 287 287 286 286 286 286 286 286 286 287 287 287 287 287 287 287 287 287 287 287 287 288 290 292 292 292 291 291 290 289 287 285 281 279 279 278 278 277 276 276 275 275 274 273 273 272 272 272 272 273
288 288 287 287 287 287 287 287 286 286 286 286 286 286 286 286 287 287 287 288 287 286 286 286 286 286 286 286 286 286 287 287 287 287 287 287 286 286 286 286 287 288 291 292 292 291 290 289 288 286 284 280 279 278 278 277 276 275 275 274 274 273 272 271 271 271 271 272 278
287 287 287 287 286 286 286 286 286 286 285 285 286 286 286 286 286 287 287 287 287 286 286 286 286 286 286 286 286 286 286 287 287 287 286 286 286 287 287 286 285 286 289 292 292 291 290 289 288 286 284 281 278 278 277 276 275 274 273 273 272 272 272 271 270 270 271 273 281
287 287 286 286 286 286 286 285 285 285 285 285 285 285 286 286 287 287 287 287 287 286 286 286 286 286 287 287 286 285 285 285 285 286 286 287 287 288 287 284 283 283 286 290 292 291 290 289 288 287 284 280 278 277 276 275 274 273 273 271 271 272 272 271 270 270 271 271 276
286 286 286 285 285 285 285 285 285 285 285 285 285 286 286 287 287 287 287 287 287 286 286 286 286 286 286 286 285 284 283 283 283 283 284 285 285 285 284 281 280 279 281 286 291 291 290 289 288 287 284 280 277 275 275 275 274 274 273 272 271 271 271 271 270 270 270 270 271
Wind_Speed
7 7 7 7 7 7 7 6 6 6 6 6 7 7 7 7 7 7 7 6 7 7 7 7 7 7 9 13 15 15 13 12 10 9 8 7 6 6 6 6 6 5 5 6 6 7 9 10 9 7 5 5 5 4 4 3 4 4 4 4 4 5 7 8 7 7 6 5 4
7 7 7 7 7 6 6 6 6 6 6 6 6 7 7 7 7 7 7 7 6 6 6 5 6 6 8 11 13 13 12 11 11 10 10 10 10 10 9 8 7 7 7 7 6 7 7 9 9 8 6 5 5 5 4 3 3 4 4 4 4 4 5 6 6 6 6 5 4
7 7 6 7 7 7 6 6 6 7 8 7 7 6 7 6 6 6 6 5 5 4 4 4 5 6 8 10 10 10 9 9 9 9 9 10 11 11 11 10 10 9 8 8 7 7 8 9 8 8 7 6 6 6 5 4 4 4 4 4 3 4 4 4 5 5 4 4 4
7 7 7 8 9 9 9 8 8 9 9 8 7 6 6 6 5 5 4 4 4 4 4 5 5 6 8 9 9 9 9 9 10 9 9 10 11 12 13 13 12 11 9 8 8 9 9 9 8 7 7 8 8 7 6 5 5 4 4 3 3 3 3 4 3 3 3 3 3
6 8 8 9 11 11 10 9 10 9 9 7 6 6 6 5 4 4 4 4 4 4 5 5 6 7 8 9 10 10 10 10 10 10 9 10 11 12 13 14 14 12 11 10 10 10 10 10 8 7 7 7 6 6 6 7 7 6 4 3 3 3 3 4 3 3 3 3 2
6 7 9 9 11 11 10 9 10 10 8 6 7 7 7 6 6 6 6 6 5 5 6 7 7 8 8 10 10 11 10 10 10 10 10 10 11 12 13 14 14 13 12 11 11 11 11 10 8 7 7 6 5 6 7 8 8 7 6 4 3 3 3 4 3 3 3 4 4
6 7 9 10 11 11 11 10 10 9 8 7 8 9 9 8 8 8 8 6 5 6 6 7 8 8 9 10 10 10 10 10 10 11 11 11 11 11 12 13 13 13 12 12 12 11 10 9 8 7 7 7 6 6 8 8 8 8 7 5 3 3 3 4 4 4 4 6 6
6 7 8 9 11 11 12 11 10 8 8 7 9 10 11 10 10 9 8 7 6 6 6 6 8 10 10 11 11 10 10 10 10 11 11 11 12 12 12 12 12 12 12 12 12 11 9 7 6 7 7 7 6 7 8 10 10 9 8 7 4 3 3 3 3 4 5 7 7
5 7 8 9 9 10 11 11 9 8 8 8 9 10 10 10 10 9 8 7 7 7 7 7 9 10 11 11 11 11 10 10 11 10 10 11 12 12 12 11 11 11 10 10 11 11 10 7 5 6 6 7 7 8 9 11 11 11 9 7 5 3 3 3 3 4 5 7 7
6 6 7 8 8 9 9 8 7 8 8 9 9 9 9 9 9 9 8 7 7 7 7 8 9 10 11 11 11 10 10 10 10 10 11 11 12 12 12 11 11 11 10 9 9 9 9 7 6 6 6 6 8 9 10 11 11 11 9 6 5 4 4 3 4 4 6 7 7
7 7 7 7 7 7 6 6 6 6 6 7 7 7 8 8 8 7 7 7 8 8 8 9 10 11 11 10 10 9 9 9 9 10 11 11 12 12 12 11 12 12 11 10 9 8 8 7 7 8 8 7 8 9 10 11 11 11 9 7 6 6 5 3 3 4 5 6 7
6 6 5 5 5 5 5 5 5 5 5 5 6 6 7 7 7 7 8 8 9 9 9 9 10 11 10 9 9 9 9 9 10 10 11 11 11 12 12 11 12 12 11 11 9 8 7 8 9 10 10 9 8 8 9 10 11 10 9 8 7 6 5 4 4 4 4 5 6
4 3 3 3 3 4 5 5 4 4 4 5 5 5 6 6 7 8 9 9 9 9 8 9 10 10 9 8 9 9 9 9 10 10 10 10 10 11 11 11 11 11 11 10 9 8 8 9 10 11 11 10 8 7 8 10 10 9 9 8 7 6 6 5 5 5 5 6 6
1 0 1 2 3 3 4 4 4 4 4 5 5 5 5 6 7 7 8 9 9 9 9 9 9 8 8 9 9 9 10 10 10 10 10 9 9 9 10 10 11 11 10 9 9 9 10 10 11 11 11 11 9 8 8 8 8 8 8 8 7 7 6 5 5 6 6 7 6
2 2 2 2 3 3 3 4 3 3 4 4 4 5 5 5 6 7 7 8 9 9 8 8 8 8 9 10 10 10 10 10 10 10 10 9 9 9 9 10 11 10 9 9 9 9 10 11 11 11 11 11 10 9 8 8 8 7 7 7 7 7 6 6 6 6 6 6 5
3 3 2 3 3 3 3 4 3 3 4 4 5 5 5 5 6 6 7 8 8 8 8 9 9 9 9 10 10 10 10 10 10 10 10 10 9 10 10 10 11 10 10 10 9 10 10 10 10 11 11 11 10 9 8 8 8 7 7 6 6 6 6 6 6 6 6 6 5
4 3 3 3 4 4 4 4 4 4 4 5 6 6 6 6 6 6 7 8 8 8 9 9 9 9 9 9 9 9 9 9 9 10 10 10 10 10 10 11 11 10 10 10 10 11 10 10 10 10 10 10 10 9 8 8 8 7 7 7 7 6 6 6 6 6 5 5 4
4 3 3 3 4 5 5 5 5 5 5 6 6 6 6 6 6 7 7 8 8 9 10 10 9 9 9 9 8 8 8 8 9 9 9 10 10 10 10 11 11 10 10 11 11 11 11 11 10 10 10 10 9 9 8 8 8 8 8 7 7 6 6 6 5 5 4 4 4
3 3 3 3 4 5 6 6 6 7 6 7 6 6 7 7 8 8 8 8 9 10 11 11 10 9 9 10 9 8 7 8 9 9 9 10 10 10 10 11 11 11 11 11 11 11 11 11 11 10 10 9 9 9 8 8 8 8 8 8 7 7 6 6 5 4 4 4 3
3 3 3 3 4 5 6 7 7 7 7 7 7 7 8 8 8 9 9 9 9 10 11 11 10 10 9 9 9 9 8 7 9 10 10 10 10 10 10 11 11 11 11 11 11 11 11 11 11 11 11 10 10 10 9 9 9 8 8 8 7 7 6 6 5 5 4 4 4
3 3 3 3 5 6 7 7 7 8 8 8 8 8 9 9 9 9 9 9 9 10 10 10 10 10 10 10 10 10 9 8 9 10 10 10 10 10 11 11 11 11 11 10 10 11 11 11 11 11 11 11 10 10 9 9 9 9 9 8 7 7 6 6 5 5 4 4 3
3 4 4 5 6 6 7 7 7 8 8 8 8 9 9 9 9 9 9 10 10 10 10 10 10 10 10 10 10 10 10 9 9 10 10 10 10 10 10 11 11 12 11 11 11 11 11 11 11 11 10 10 10 10 10 9 9 9 9 8 7 7 6 5 5 4 4 3 3
5 5 6 6 7 7 7 7 8 8 8 9 9 9 9 10 10 10 10 10 10 10 10 9 9 9 10 10 11 11 11 11 11 11 11 11 11 11 11 11 11 12 11 10 10 10 10 10 10 10 10 10 10 10 10 10 9 9 8 8 7 7 6 5 4 4 3 3 2
7 7 7 6 7 8 8 8 8 9 9 9 9 9 10 10 11 11 11 11 11 11 10 9 9 10 10 11 12 12 12 13 13 12 12 12 12 11 11 11 11 10 9 8 9 9 9 9 9 9 9 9 9 9 9 9 8 8 8 8 7 6 5 5 4 4 3 2 1
8 8 8 8 9 9 9 9 10 9 9 9 10 10 10 11 11 11 12 12 12 12 11 11 10 10 10 11 12 12 12 13 14 14 13 13 12 11 11 10 9 8 8 9 12 13 12 10 9 8 8 8 8 8 8 8 8 8 7 7 6 5 5 4 4 3 2 1 1
9 10 10 10 11 11 11 11 11 10 10 10 10 11 11 11 11 11 12 12 12 12 12 11 11 11 11 11 12 12 12 12 13 13 13 13 12 11 10 9 8 7 8 11 15 16 16 15 13 10 8 7 8 8 8 7 7 7 7 6 5 5 4 3 2 2 2 1 1
10 11 11 12 12 12 12 11 11 11 11 11 11 11 11 11 11 11 12 12 12 12 11 11 11 11 11 11 12 12 12 11 11 12 13 12 12 11 10 8 7 7 9 15 17 18 17 17 15 13 11 8 7 7 7 6 7 6 6 5 5 4 3 3 2 1 1 1 1
11 11 12 13 13 13 12 12 12 12 12 12 12 12 12 12 12 12 12 12 11 11 10 9 9 9 9 9 11 12 12 11 11 11 11 11 11 11 10 8 7 9 12 17 18 18 17 16 16 15 13 10 8 7 7 7 6 5 5 4 4 3 3 2 2 1 1 1 1
11 12 12 13 13 13 13 13 13 12 12 12 12 12 12 12 12 12 12 11 11 10 8 7 7 7 8 9 10 11 11 11 10 10 10 11 11 10 9 8 9 11 15 18 17 17 16 16 16 15 14 12 8 6 5 5 5 4 4 3 3 3 3 2 2 2 1 1 1
11 12 12 13 13 13 13 13 12 12 12 11 12 12 12 12 12 12 11 11 10 9 8 7 8 8 9 9 9 9 9 9 9 10 10 11 11 10 9 9 9 11 15 18 17 16 16 16 16 16 15 13 10 7 5 4 4 4 3 3 3 3 3 3 2 2 2 1 2
11 12 12 13 13 13 13 12 12 12 12 11 12 12 13 12 12 11 11 10 10 10 9 10 10 10 10 9 9 9 9 9 9 9 10 11 11 11 10 10 10 12 14 17 17 17 17 17 17 16 15 13 10 7 5 4 4 4 3 3 3 3 3 3 3 2 2 2 2
10 11 12 13 13 13 12 12 12 12 12 13 13 13 13 12 12 11 10 10 10 10 11 11 11 11 11 10 10 10 10 10 9 9 9 10 10 10 10 9 10 11 14 17 17 17 17 17 17 16 15 13 9 7 5 5 4 4 4 4 4 4 3 3 2 2 2 2 2
9 10 11 12 12 12 12 12 12 12 12 13 13 13 13 12 12 11 11 10 10 10 10 10 11 11 11 10 10 10 10 10 10 10 10 10 10 10 10 9 9 11 14 17 17 17 17 17 16 15 14 12 8 6 5 5 4 4 4 4 4 3 3 3 2 2 2 1 1
8 9 10 11 11 11 11 11 11 12 12 13 12 12 12 12 12 11 10 9 8 8 9 9 9 9 9 9 10 10 10 9 9 9 9 9 10 10 9 7 7 10 14 16 17 17 17 16 15 14 13 11 7 6 5 5 5 5 4 4 4 3 3 2 2 2 1 1 1
8 9 10 10 10 10 10 10 11 11 12 12 12 12 11 11 11 10 10 10 9 8 8 8 8 8 8 8 9 9 10 9 9 9 9 9 9 9 9 7 7 10 14 15 16 16 16 15 14 13 11 9 6 5 5 6 5 5 5 4 4 3 3 2 2 1 1 0 1
9 9 10 10 10 10 10 10 10 11 11 11 11 11 11 10 10 9 10 10 10 9 9 8 8 8 8 8 8 8 8 9 9 9 9 9 9 8 8 7 8 10 13 14 15 15 15 14 13 12 11 8 5 5 5 5 5 5 4 4 3 2 2 2 1 1 0 0 1
8 9 10 10 10 9 9 9 10 10 10 11 10 10 10 10 9 9 9 9 9 9 9 8 8 8 8 8 8 7 7 8 8 8 8 7 7 7 7 6 6 8 11 13 13 14 14 13 13 12 10 7 5 5 5 4 4 4 4 3 2 1 1 1 1 1 1 1 2
8 9 9 9 9 9 9 9 9 10 10 10 10 10 9 9 8 8 8 8 9 9 9 9 9 8 8 8 8 8 7 7 7 7 7 6 6 6 6 5 4 6 9 12 13 13 13 13 13 12 10 7 6 5 4 4 3 3 3 2 1 1 1 1 1 1 1 2 3
8 8 9 9 9 9 9 9 9 9 9 10 9 9 9 8 7 7 7 8 8 9 9 9 9 8 8 8 8 7 7 6 6 6 6 5 4 5 5 4 3 3 5 10 12 13 13 13 13 12 11 7 6 5 4 4 3 3 3 2 1 2 2 2 2 2 2 3 6
8 8 8 9 9 9 9 10 9 9 9 9 9 9 9 8 8 8 8 7 8 8 8 9 8 8 8 8 7 7 7 6 6 5 4 4 4 4 4 4 2 2 1 6 10 12 12 13 13 12 10 7 5 4 4 4 3 3 2 2 2 2 2 3 3 3 3 4 5
7 8 8 9 9 9 10 10 10 9 9 9 9 9 8 8 8 8 7 7 7 7 7 7 8 8 8 8 7 7 7 7 6 5 5 4 4 4 4 4 3 3 1 3 8 11 12 12 12 12 10 6 5 4 4 4 4 3 2 1 1 2 2 3 3 3 3 3 3
Wind_Direction
207 201 197 194 195 197 199 202 202 200 197 195 196 196 195 195 197 198 197 195 196 195 195 195 193 185 173 166 164 169 176 177 165 152 139 124 114 110 109 107 110 114 120 125 125 120 117 119 120 123 126 130 129 129 131 137 144 144 141 137 131 123 120 120 128 139 148 156 159
207 202 196 192 193 194 197 200 201 201 200 199 199 198 198 198 199 199 198 197 199 196 193 193 190 181 172 169 167 168 169 166 156 146 136 129 124 120 116 113 113 114 116 116 114 113 115 121 123 125 128 129 127 126 126 128 130 127 122 117 115 114 117 123 133 141 147 151 155
202 198 194 191 192 193 196 198 201 202 201 202 201 200 200 200 201 200 198 196 193 187 182 183 179 168 161 161 162 161 158 152 145 138 132 129 126 123 120 117 115 116 118 119 119 120 123 126 126 128 131 134 133 131 128 124 118 113 109 106 104 108 115 124 133 139 144 148 150
196 193 190 191 193 195 197 199 201 202 202 202 200 199 199 201 200 196 189 181 178 176 174 173 165 156 151 151 151 149 145 141 137 133 129 127 125 124 123 122 123 125 128 129 129 131 132 133 130 131 134 139 140 140 140 137 125 116 110 108 110 114 121 127 133 138 141 142 139
202 194 192 192 194 196 199 201 201 202 202 200 196 195 197 198 195 187 179 173 178 175 168 160 153 148 145 144 143 141 139 138 137 134 130 129 128 127 127 128 131 134 137 138 138 139 139 137 133 133 138 143 146 147 145 140 129 122 116 114 122 128 131 132 137 141 142 137 126
218 204 197 194 194 197 200 203 202 201 200 195 191 192 195 196 193 187 183 179 174 164 155 149 144 142 141 141 140 140 139 140 139 136 134 133 133 132 133 134 137 139 140 141 142 143 143 142 137 137 139 142 143 144 143 139 132 127 125 127 134 136 136 139 146 147 142 132 117
232 218 206 199 196 197 200 203 201 199 195 191 191 193 195 195 191 186 180 171 162 156 152 149 143 143 143 144 142 142 142 143 140 139 138 137 136 136 136 136 137 138 140 142 143 145 146 145 141 140 142 142 142 145 145 142 136 133 133 136 140 140 139 145 149 146 136 125 114
240 228 217 206 201 200 201 202 199 195 192 193 194 195 195 192 187 181 173 160 158 158 156 149 145 145 147 147 145 145 144 144 143 142 141 139 137 135 133 132 133 136 139 141 143 146 147 145 141 142 143 143 143 146 147 143 136 133 132 134 134 133 137 144 147 142 131 120 112
244 234 225 217 209 205 204 201 196 192 192 197 197 195 192 188 182 175 168 161 161 159 154 145 144 145 146 146 146 146 147 146 145 143 142 139 137 135 133 132 134 136 138 141 142 143 143 139 137 139 141 141 142 144 144 140 134 130 128 127 126 125 127 134 138 133 125 116 111
243 233 227 222 216 211 206 200 193 190 191 196 195 191 187 183 176 171 166 160 157 154 149 142 143 144 145 146 145 146 146 145 143 142 141 140 139 138 137 137 139 140 140 142 141 140 138 133 133 133 133 132 134 136 136 135 130 127 125 125 127 129 128 129 127 123 118 113 113
243 234 226 222 218 210 201 192 189 188 189 191 187 183 180 176 169 164 159 152 151 151 148 142 143 144 145 144 143 143 142 142 142 142 142 142 142 142 141 142 142 143 143 143 142 139 136 133 133 131 129 126 128 130 131 129 126 125 125 127 131 131 128 118 108 106 107 108 108
248 239 230 221 210 197 186 182 182 181 181 180 179 176 173 168 160 155 151 147 149 148 145 142 143 144 143 142 140 138 138 139 141 142 144 145 144 143 143 142 143 143 143 143 142 139 136 136 135 133 130 127 126 128 128 128 125 124 125 129 130 130 125 115 99 93 93 96 98
256 245 229 209 185 173 170 172 170 169 170 171 171 168 162 155 150 148 147 146 147 145 142 142 142 141 140 138 136 136 137 139 141 143 144 145 145 143 142 141 141 141 141 142 141 138 136 137 137 135 132 129 125 124 125 125 123 123 125 128 130 130 127 119 106 96 90 86 87
304 242 166 149 146 149 154 156 155 157 158 159 156 149 142 139 142 143 144 144 144 142 140 140 139 137 136 135 134 135 137 139 141 142 142 142 141 141 141 140 141 141 140 141 139 137 136 137 137 134 130 126 121 119 118 119 121 124 128 132 134 132 128 120 109 99 92 87 87
26 49 80 103 114 123 130 134 135 137 139 139 133 127 126 128 134 136 137 138 138 136 135 136 135 133 132 132 134 136 138 139 140 139 138 137 137 138 139 139 139 138 138 136 134 133 133 133 132 129 125 121 118 116 115 117 122 127 132 136 133 128 121 114 105 98 95 96 98
30 37 55 82 97 105 110 115 113 114 116 117 115 115 118 121 125 128 129 131 130 129 129 131 130 129 129 131 134 136 138 139 138 136 134 134 135 136 137 137 137 136 134 131 127 125 125 124 124 122 120 118 117 116 117 119 123 125 126 123 119 115 111 108 103 101 102 107 115
29 32 46 76 95 102 105 104 99 98 100 103 106 109 113 117 119 121 123 125 124 125 126 127 127 128 129 131 135 137 137 136 135 134 134 134 135 136 135 135 134 132 129 126 123 120 118 117 116 116 116 116 116 117 118 118 117 115 110 105 102 101 101 102 102 105 109 115 127
34 33 45 78 96 102 102 98 95 94 96 99 102 105 109 114 116 116 117 119 122 124 125 125 126 128 130 133 134 134 133 132 131 131 132 133 133 132 131 129 127 126 124 122 120 119 117 116 115 114 114 114 114 114 113 111 107 102 99 95 93 92 92 93 96 102 109 118 128
46 46 56 83 98 100 99 97 97 96 97 98 100 102 105 109 112 113 114 117 121 124 125 125 126 127 128 130 128 126 125 125 126 127 127 128 127 126 124 123 121 120 119 117 117 116 116 116 116 115 114 112 110 107 104 101 97 95 92 90 88 86 85 84 86 88 93 100 105
55 59 66 83 96 98 98 99 101 101 101 99 101 102 104 106 108 111 114 117 119 121 123 124 124 124 124 123 120 118 116 117 120 122 122 122 121 119 118 116 114 113 113 113 114 115 115 116 116 114 112 108 105 102 99 97 95 92 90 87 85 83 82 82 81 82 84 88 94
52 58 65 75 89 94 97 100 103 103 103 102 103 103 104 104 106 108 111 113 113 114 116 118 120 121 120 117 115 114 113 112 116 118 118 117 115 112 110 108 108 108 109 110 112 114 115 114 113 111 108 105 104 103 102 100 96 93 90 87 85 84 83 84 85 86 89 94 104
47 56 62 69 80 88 93 96 99 100 101 101 101 101 101 101 101 101 102 103 104 105 108 110 112 113 113 113 113 112 112 110 111 112 112 111 109 106 104 104 105 106 108 109 111 111 111 109 108 107 106 105 106 106 106 104 100 97 94 93 91 90 88 88 89 91 95 101 113
49 55 61 67 75 82 86 88 90 92 93 94 94 94 95 96 95 96 96 96 98 99 100 101 102 103 105 108 110 110 110 108 106 105 104 104 104 103 103 102 103 104 105 106 107 107 107 105 105 105 106 106 107 106 105 103 102 100 99 98 96 94 91 90 90 91 94 100 118
52 57 61 66 70 74 77 79 80 82 83 85 87 89 91 93 93 94 94 95 96 96 97 97 96 97 100 103 105 107 107 107 106 104 102 102 102 102 102 100 100 100 101 103 106 107 107 107 107 106 106 105 104 102 99 98 98 98 98 98 96 93 90 87 86 87 89 94 114
57 60 63 64 65 67 69 71 73 75 78 80 83 86 88 90 92 93 93 93 94 94 95 96 96 96 97 99 101 102 104 106 106 106 105 103 103 102 101 100 100 100 103 107 111 111 110 110 110 109 106 103 100 97 94 93 94 95 96 97 95 93 89 84 82 82 82 80 77
61 64 65 65 65 65 66 68 72 74 76 78 81 83 85 88 89 91 92 93 93 94 95 96 96 97 98 99 100 101 101 103 105 107 107 106 105 104 103 103 104 106 111 116 116 115 113 111 110 107 104 101 98 96 94 91 92 93 94 94 95 94 93 90 84 76 68 54 9
64 67 69 70 70 69 69 69 71 73 75 78 80 82 84 86 88 89 91 92 94 94 94 95 97 99 99 99 100 101 101 102 104 106 108 109 109 108 107 108 110 114 119 122 120 118 116 113 110 106 102 98 96 95 95 94 93 92 91 91 93 95 97 99 93 78 56 31 7
70 72 74 75 75 75 74 73 73 74 75 77 80 82 84 85 87 89 90 92 93 92 92 93 96 98 98 98 99 100 101 103 105 106 108 109 109 110 111 112 116 120 123 123 121 119 117 115 110 105 100 96 94 94 95 96 94 92 91 92 94 97 101 107 108 105 95 72 56
77 79 79 79 79 78 78 77 77 78 79 80 81 83 84 85 85 87 88 89 89 89 90 92 93 94 94 96 97 99 100 103 106 108 109 109 110 111 114 117 119 121 123 123 121 119 117 113 108 103 99 97 96 94 93 95 95 96 97 98 102 107 112 117 118 119 114 104 89
82 83 83 83 82 82 81 82 83 84 84 84 84 84 84 83 83 83 83 83 83 84 86 89 91 92 94 96 98 100 102 104 107 110 112 114 115 117 118 119 120 122 123 123 120 117 113 109 105 101 99 97 96 95 95 97 100 103 105 107 110 112 114 115 113 108 98 81 69
87 88 88 88 87 86 86 87 88 88 89 88 87 86 84 83 82 81 81 82 84 86 88 90 93 95 97 99 101 103 105 106 109 111 114 116 117 117 117 117 118 121 122 121 118 114 110 106 102 100 98 97 97 98 100 104 106 108 109 110 110 110 108 107 102 93 81 66 57
92 93 95 95 94 94 94 94 94 94 94 93 92 91 90 89 88 88 89 91 94 96 97 97 99 101 102 102 104 105 107 108 109 111 112 113 113 112 111 110 112 115 117 117 114 111 108 105 102 99 98 98 100 103 105 107 106 105 103 102 101 99 97 94 92 84 75 64 60
90 94 96 99 100 101 101 100 100 99 99 98 98 97 97 98 98 98 99 100 102 104 105 105 106 107 108 109 109 109 108 108 108 108 107 107 106 105 103 102 105 110 113 113 112 109 107 104 102 101 100 102 104 106 108 107 105 102 98 94 89 84 80 78 80 79 76 71 69
81 86 90 94 96 98 100 101 101 101 100 100 99 100 101 102 103 103 104 105 105 105 105 106 107 108 110 111 111 110 108 105 103 101 100 99 98 97 97 96 101 109 112 112 110 109 107 105 104 103 103 105 106 107 107 105 102 100 97 93 84 75 67 65 67 70 75 87 100
75 79 83 85 88 91 94 96 97 98 98 99 99 99 100 101 103 104 106 107 105 102 101 101 101 101 101 100 101 103 103 101 98 96 94 94 94 93 93 94 100 109 112 111 111 110 109 108 107 106 107 107 107 107 106 104 102 100 98 94 83 69 54 46 46 48 58 122 162
77 81 84 85 86 88 90 92 94 95 96 97 98 99 98 98 99 101 105 107 105 102 100 99 97 94 92 90 90 93 95 97 96 94 93 94 94 94 94 95 102 110 113 114 115 114 113 112 111 111 111 109 107 105 105 104 103 99 95 90 78 60 34 20 13 6 335 229 202
82 85 87 88 88 88 89 91 92 93 94 96 97 97 97 96 97 100 103 106 104 101 98 95 93 91 90 89 87 87 87 90 93 95 95 96 98 98 99 99 103 113 119 121 121 120 118 118 118 117 116 111 109 107 106 103 100 94 88 82 69 38 2 351 346 337 312 276 238
81 84 87 89 89 89 88 89 90 91 92 92 92 92 93 94 95 98 101 102 100 99 96 93 91 90 90 91 89 86 84 86 92 95 97 98 100 103 105 104 105 119 127 129 128 126 124 123 123 122 121 117 116 114 112 107 99 91 83 75 51 7 341 338 342 340 330 320 324
77 81 84 88 89 89 88 86 86 86 87 88 88 88 89 90 92 93 93 93 94 95 95 94 93 93 93 94 92 88 83 81 85 90 94 97 103 108 110 105 97 112 130 137 134 131 128 125 125 125 124 121 121 119 116 110 102 92 82 66 39 3 349 348 358 356 348 343 357
78 81 84 87 88 88 87 85 83 82 83 84 85 86 87 88 89 88 88 87 88 91 93 94 95 95 95 95 90 85 78 70 66 69 76 87 100 106 103 87 66 42 106 147 138 133 129 126 125 126 125 121 121 120 116 110 102 94 80 59 40 15 359 352 359 360 355 349 357
80 82 84 86 87 87 87 86 83 82 81 81 83 84 86 87 87 87 87 87 87 88 89 91 91 91 90 89 84 78 72 63 53 47 47 55 64 72 72 59 45 12 344 170 140 134 129 127 127 127 128 123 120 116 112 107 102 97 90 66 50 30 10 354 355 356 354 347 347